Other Public Products
Issued by NWS Grand Forks, ND

Home | Current Version | Previous Version | Graphics & Text | Print | Product List | Glossary On
Versions: 1 2 3 4 5 6 7 8 9 10 11 12 13 14 15 16 17 18 19 20 21 22 23 24 25 26 27 28 29 30 31 32 33 34 35 36 37 38 39 40 41 42 43 44 45 46 47 48 49 50
000
FPUS83 KFGF 040131
OPUFGF
PRAIRIE TO PINES WEATHER ROUNDUP
NATIONAL WEATHER SERVICE EASTERN NORTH DAKOTA/GRAND FORKS ND
700 PM CST SAT DEC 03 2016

 **SATELLITE DATA USED TO AUGMENT SKY COVER AT AUTOMATED STATIONS**
 *****  WEATHER ACROSS EASTERN NORTH DAKOTA  *****

CITY           SKY/WX    TMP DP  RH WIND       PRES   REMARKS
GRAND FORKS    LGT SNOW  31  26  82 S17       29.98F WCI  19
GRAND FORKS AF LGT SNOW  30  28  93 S14       29.96F FOG     WCI  20
GRAND CITY NWS   N/A     30 N/A N/A SE16        N/A  WCI  19
BUXTON           N/A     44  44  99 SE16        N/A
DEVILS LAKE    CLOUDY    31  28  89 SE20G25   29.88F WCI  19
FARGO          CLOUDY    32  28  85 SE18G26   29.99F WCI  20
WAHPETON ARPT  CLOUDY    32  30  93 SE14      30.01F WCI  22
$$

 *****  WEATHER ACROSS CENTRAL AND WESTERN NORTH DAKOTA  *****

CITY           SKY/WX    TMP DP  RH WIND       PRES   REMARKS
JAMESTOWN      CLOUDY    33  31  92 SE14      29.88F WCI  23
BISMARCK       LGT SNOW  27  24  89 S5        29.84F FOG     WCI  22
MINOT          FLURRIES  28  25  88 S10       29.76F WCI  19
MINOT AFB      CLOUDY    27  25  93 S13       29.75F WCI  16
GARRISON         N/A     27  25  92 S12       29.78F WCI  17
WILLISTON      PTCLDY    31  29  92 SW3       29.75S
DICKINSON      CLOUDY    27  21  78 SW13      29.75S WCI  16
HETTINGER      CLOUDY    27  22  81 W5        29.82F WCI  22
$$

 *****  OTHER OBSERVATIONS NORTHEAST NORTH DAKOTA  *****

CITY           SKY/WX    TMP DP  RH WIND       PRES   REMARKS
WALHALLA       MIX PCPN  28  28 100 SE15      29.94F WCI  17
LANGDON        CLOUDY    28  28 100 S20G28    29.88F WCI  15
CAVALIER       MIX PCPN  28  27  93 SE12G18   29.96F WCI  18
GRAFTON        LGT SNOW  30  27  86 SE13G23   29.99F WCI  20
CANDO          CLOUDY    32  30  93 SE18G25   29.87F WCI  20
FORT TOTTEN      N/A     30  30 100 S14       29.95S WCI  19
ROLLA          CLOUDY    28  28 100 S16G24    29.82F WCI  17
RUGBY            N/A     27  27 100 S12G18    29.82F WCI  16
 ***** THE ABOVE OBSERVATIONS ARE NON NWS ARE NOT QUALITY
        CONTROLLED AND MAY MIS-REPORT RAIN FOR SNOW...
$$

 *****  OTHER OBSERVATIONS SOUTHEAST NORTH DAKOTA *****

CITY           SKY/WX    TMP DP  RH WIND       PRES   REMARKS
COOPERSTOWN    CLOUDY    30  30 100 SE20      29.92F WCI  18
VALLEY CITY    CLOUDY    32  32 100 S13       29.94F WCI  22
OAKES          NOT AVBL
GWINNER          N/A     32  32 100 SE9       29.96F WCI  24
SHEYENNE NWR     N/A     32  30  92 SE16      29.95S WCI  21
BUFFALO          N/A     31  29  93 NE13        N/A  WCI  21
WYNDMERE         N/A     32  32 100 SE14        N/A  WCI  22
 ***** THE ABOVE OBSERVATIONS ARE NON NWS ARE NOT QUALITY
       CONTROLLED AND MAY MIS-REPORT RAIN FOR SNOW...
$$

  *****  WEATHER ACROSS NORTHERN MINNESOTA  *****

CITY           SKY/WX    TMP DP  RH WIND       PRES   REMARKS
FLAG ISLAND    CLOUDY    27  23  86 S21       30.07S WCI  13
WARROAD        CLOUDY    25  21  86 SE12      30.07F WCI  14
ROSEAU         CLEAR     25  19  80 SE10      30.05F WCI  15
HALLOCK        CLOUDY    28  25  86 SE15      30.00F WCI  17
THF RVR FALLS  CLOUDY    25  21  85 SE15      30.03  WCI  13
HALSTAD          N/A     30  28  92 SE15        N/A  WCI  19
FOSSTON        CLOUDY    25  21  86 SE8       30.03F WCI  16
BAUDETTE       CLOUDY    25  18  74 S15       30.09  WCI  13
WASKISH        CLEAR     21  19  93 E3        30.09F
CROOKSTON      CLOUDY    28  25  86 SE17G24   30.01F WCI  16
$$
  *****  WEATHER ACROSS CENTRAL AND WEST MINNESOTA  *****

CITY           SKY/WX    TMP DP  RH WIND       PRES   REMARKS
BEMIDJI        CLOUDY    24  19  83 SE12      30.07F WCI  13
PARK RAPIDS    LGT SNOW  26  21  81 SE13      30.07F WCI  15
WADENA         MIX PCPN  27  25  93 SE10      30.07F WCI  17
DETROIT LAKES  LGT SNOW  30  28  93 SE13      30.03F WCI  20
MOORHEAD       LGT RAIN  30  28  93 SE18G25   30.00F WCI  18
FERGUS FALLS   FLURRIES  30  30 100 SE17      30.07F WCI  18
ELBOW LAKE     LGT SNOW  31  30  97 E16G22    30.04F WCI  20
MORRIS MN      LGT SNOW  34  32  93 SE17      30.03F WCI  23
STAPLES        CLOUDY    27  23  86 SE9       30.09F WCI  17
WHEATON        NOT AVBL
$$
  *****  WEATHER ELSEWHERE ACROSS MINNESOTA  *****

CITY           SKY/WX    TMP DP  RH WIND       PRES   REMARKS
DULUTH         CLOUDY    29  21  72 S7        30.17F WCI  22
INTRNTL FALLS  CLOUDY    27  19  72 VRB7      30.13S WCI  19
ELY            MOCLDY    27  21  80 S5        30.16S WCI  21
CLOQUET        CLOUDY    28  18  64 S5        30.17F WCI  23
BRAINERD       LGT SNOW  27  22  81 SE6       30.13F WCI  20
HIBBING        CLOUDY    26  19  74 S9        30.15F WCI  17
ALEXANDRIA     FLURRIES  30  28  92 SE12      30.08F WCI  20
SAINT CLOUD    CLOUDY    30  24  78 SE13      30.15F WCI  20
MINNEAPOLIS    CLOUDY    31  23  72 SE9       30.20F WCI  23
$$

  *****  WEATHER ACROSS SOUTH DAKOTA  *****

CITY           SKY/WX    TMP DP  RH WIND       PRES   REMARKS
SIOUX FALLS    DRIZZLE   34  33  96 S16G26    30.05F FOG     WCI  24
BROOKINGS      CLOUDY    33  32  96 S20       30.00F WCI  21
WATERTOWN      CLOUDY    33  31  92 S22G30    29.97F WCI  21
HURON          PTCLDY    33  32  96 S15       29.96S WCI  23
SISSETON         N/A     33  32  96 S15       29.99F WCI  23
ABERDEEN       PTCLDY    32  30  92 S12       29.94F WCI  23
MITCHELL       CLOUDY    37  34  89 S18G28    29.98F
PIERRE         CLEAR     30  22  72 W6        29.90F WCI  24
MOBRIDGE       PTCLDY    28  23  81 SW5       29.86F WCI  23
RAPID CITY     CLOUDY    33  22  63 W6        29.90F
$$

  *****  SOME WEATHER IN NEARBY STATES *****

CITY           SKY/WX    TMP DP  RH WIND       PRES   REMARKS
GLASGOW MT     CLEAR     35  29  78 W23G33    29.80R WCI  23
GREAT FALLS MT CLEAR     29  18  63 W12       29.91F WCI  19
CHEYENNE WY    PTCLDY    26  10  50 NW15      29.98R WCI  14
SCOTTSBLUFF NE CLOUDY    36  13  38 W13       30.00R
OMAHA NE       LGT SNOW  33  30  88 SE6       30.14F FOG
DES MOINES IA  LGT RAIN  39  33  79 E6        30.20S
DAVENPORT IA   PTCLDY    32  26  78 SE5       30.27S
CHICAGO IL     MOCLDY    31  24  75 S3        30.29F
EAU CLAIRE WI  CLOUDY    29  21  72 S5        30.23F WCI  24
LA CROSSE WI   CLOUDY    34  26  72 E5        30.25F
$$

  *****  SOME NATIONAL WEATHER *****

CITY           SKY/WX    TMP DP  RH WIND       PRES   REMARKS
LA GUARDIA NY  PTCLDY    45  29  53 NW18      30.10F
RALEIGH NC     CLOUDY    46  30  53 CALM      30.25S
ATLANTA GA     LGT RAIN  48  45  89 CALM      30.24R
NEW ORLEANS LA CLOUDY    61  52  72 E18G29    29.99S
OKLAHOMA CITY  CLOUDY    44  43  96 E8        30.05S FOG
ALBUQUERQUE NM PTCLDY    40  26  57 NW13      30.02R
SALT LAKE CITY MOCLDY    34  21  59 SE6       30.26S
LOS ANGELES CA CLEAR     62  35  36 CALM      30.04F
BOISE ID       MOCLDY    40  29  64 CALM      30.22F
SEATTLE WA     CLOUDY    46  43  89 S15       30.19F
$$

*** WEATHER ACROSS MANITOBA...SASKATCHEWAN AND ONTARIO ***
                ***ONTARIO***

CITY           SKY/WX    TMP DP  RH WIND       PRES   REMARKS
GERALDTON      CLOUDY    21  19  93 E6        30.22F WCI  14
THUNDER BAY    CLOUDY    30  25  80 NE5       30.22F
SIOUX LOOKOUT  FLURRIES  23  21  93 S8        30.13F WCI  14
TORONTO        CLOUDY    37  30  75 W9        30.22S
BIG TROUT LK   FLURRIES  21  19  93 S10G17    30.15F WCI  10
PICKLE LAKE    FRZ DRZL  19  18  93 SE7       30.15F WCI  10
DRYDEN         CLOUDY    23  21  93 S10G18    30.10F WCI  12
KENORA         FLURRIES  23  21  93 S13G18    30.07F WCI  11
$$
                *** MANITOBA***

CITY           SKY/WX    TMP DP  RH WIND       PRES   REMARKS
BRANDON        CLOUDY    30  27  86 S10       29.82F WCI  21
DAUPHIN        CLOUDY    32  27  80 S9G17     29.79F WCI  24
ISLAND LAKE    FLURRIES  18  14  86 SE12G20   30.05F WCI   5
PILOT MOUND      N/A     28  27  93 S23G29      N/A  WCI  14
THE PAS        FLURRIES  28  25  86 S10       29.76F WCI  19
THOMPSON       FLURRIES  16  14  93 E6        29.94F WCI   7
WINNIPEG       CLOUDY    27  23  86 S18G26    29.99F WCI  13
LYNN LAKE      FLURRIES  21  21 100 SE12      29.79F WCI   9
CHURCHILL      CLOUDY    14  14 100 S7        30.06F WCI   4
GILLAM         LGT SNOW   7   3  85 SE6       30.07F WCI  -3
$$
                ***SASKATCHEWAN***

CITY           SKY/WX    TMP DP  RH WIND       PRES   REMARKS
ESTEVAN        LGT SNOW  30  30 100 SW10      29.70F WCI  21
KINDERSLEY     FOG       16  14  93 SW8       29.74S VSB 1/8 WCI   5
LLOYDMINSTER   PTCLDY    21  21 100 W10       29.68S WCI  10
PRINCE ALBERT  FLURRIES  27  25  93 CALM      29.71S
REGINA         CLOUDY    23  23 100 W17       29.70R FOG     WCI   9
YORKTON        CLOUDY    27  23  86 SE9       29.67F WCC1F1C2F2C3F3C4F4C5F5C6F6C7F7C8F8C9F9CaFaCbFbCcFcCdFdCe!



USA.gov is the U.S. government's official web portal to all federal, state and local government web resources and services.